Pahrump, Nevada Weather observations

Data are for observation ending at time listed.
 Day   Time    Ave.   Ave.  Ave.  Vector   Max.   Stn.    Total    Solar   Ave.  
  of    of     Air    Rel.  Wind   Wind    Wind   Baro.  Precip.   Rad.    Soil  
Year   Day     Temp.  Hum.  Speed  Dir.    Gust   Pres.                    Temp. 
2016   (PST)    F      %     mph   deg.    mph     mb.     in.     W/m2     F   
------------------------------------------------------------------------------
 179   15:00  109.6     8    3.2   226      6.7   924.4    0.00     263    106.9
 179   15:10  109.6     8    3.3   288      8.8   924.2    0.00     318    106.6
 179   15:20  108.8     8    3.0   281      8.4   924.0    0.00     311    106.4
 179   15:30  109.6     8    1.9   263      5.4   923.9    0.00     392    106.2
 179   15:40  108.4     8    1.7   287      4.7   923.8    0.00     147    106.0
 179   15:50  108.3     8    2.4   297      5.8   923.7    0.00     319    105.9
 179   16:00  109.2     8    2.9   281      8.8   923.5    0.00     638    105.7
 179   16:10  109.1     8    3.3   212      8.0   923.5    0.00     562    105.5
 179   16:20  108.3     8    3.8   185      7.8   923.5    0.00     359    105.3
 179   16:30  107.9     8    2.8   244      6.2   923.4    0.00     219    105.1
 179   16:40  107.8     8    3.0   248      7.5   923.3    0.00     181    105.0
 179   16:50  107.3     8    2.4   240      6.5   923.2    0.00     163    104.8
 179   17:00  107.1     8    2.8   232      5.8   923.2    0.00     253    104.6
 179   17:10  107.3     8    2.8   191      7.1   923.1    0.00     258    104.5
 179   17:20  107.2     8    2.3   251      5.4   923.1    0.00     169    104.3
 179   17:30  107.0     8    2.2   214      7.3   923.0    0.00     125    104.1
 179   17:40  107.1     8    3.8   188      7.7   923.0    0.00      12    104.0
 179   17:50  106.5     8    2.8   224      7.9   923.0    0.00       0    103.8
 179   18:00  105.6     8    2.9   227      7.7   923.0    0.00      18    103.6
 179   18:10  104.9     9    1.9   238      4.9   923.0    0.00      20    103.4
 179   18:20  104.2     9    2.3   232      5.8   923.0    0.00      23    103.2
 179   18:30  103.9     9    2.5   225      6.4   923.0    0.00      14    103.0
 179   18:40  103.5     9    1.7   212      6.5   922.9    0.00      14    102.8
 179   18:50  103.4     9    0.1   211      0.1   922.9    0.00      10    102.6
 179   19:00  102.7     9    0.1   216      0.1   922.9    0.00       5    102.4
 179   19:10  102.0     9    0.1   181      0.1   922.8    0.00       3    102.1
 179   19:20  101.8     9    0.1   167      0.1   922.8    0.00       2    101.9
 179   19:30  101.7     9    0.1   166      0.1   922.9    0.00       0    101.6
 179   19:40  101.6     9    0.1   164      0.1   922.9    0.00       0    101.4
 179   19:50   99.9    10    4.1   136      9.2   923.0    0.00       0    101.2
 179   20:00   99.7    10    5.1   133      7.2   923.0    0.00       0    101.0
 179   20:10   99.1    11    5.2   132      8.1   923.1    0.00       0    100.8
 179   20:20   98.5    12    4.4   121      7.1   923.2    0.00       0    100.5
 179   20:30   98.7    12    6.3   130     10.2   923.2    0.00       0    100.3
 179   20:40   98.6    13    6.3   130     10.6   923.3    0.00       0    100.1
 179   20:50   98.3    13    4.0   138     10.6   923.5    0.00       0    99.9
 179   21:00   98.3    14    0.5   139      3.7   923.6    0.00       0    99.7
 179   21:10   98.7    13    0.4   137      2.9   923.7    0.00       0    99.6
 179   21:20   98.7    14    0.1   158      0.1   923.8    0.00       0    99.4
 179   21:30   98.5    14    0.1   166      0.9   924.0    0.00       0    99.2
 179   21:40   98.0    14    0.2   157      1.8   924.1    0.00       0    99.1
 179   21:50   97.5    14    0.3   165      3.7   924.1    0.00       0    99.0
 179   22:00   97.2    14    0.2   138      2.0   924.1    0.00       0    98.8
 179   22:10   97.1    14    0.5   136      2.9   924.2    0.00       0    98.7
 179   22:20   96.7    14    0.5   136      3.3   924.2    0.00       0    98.6
 179   22:30   96.5    14    1.3   134      4.7   924.2    0.00       0    98.4
 179   22:40   96.3    14    1.9   134     15.6   924.2    0.00       0    98.3
 179   22:50   96.1    14    4.1   134     15.4   924.2    0.00       0    98.2
 179   23:00   95.9    14    1.3   136      4.1   924.2    0.00       0    98.1
 179   23:10   95.8    14    0.8   137      5.7   924.3    0.00       0    97.9
 179   23:20   95.5    14    0.4   131     16.2   924.4    0.00       0    97.8
 179   23:30   95.3    14    3.4   134     15.8   924.5    0.00       0    97.7
 179   23:40   95.3    14    1.6   133     15.3   924.5    0.00       0    97.6
 179   23:50   95.2    14    2.6   139     18.6   924.6    0.00       0    97.5
 180    0:00   95.1    14   10.0   132     17.3   924.6    0.00       0    97.4
 180    0:10   95.0    14   10.9   131     16.4   924.5    0.00       0    97.3
 180    0:20   94.9    14   11.2   134     17.4   924.5    0.00       0    97.2
 180    0:30   94.6    15    9.7   133     18.0   924.4    0.00       0    97.1
 180    0:40   94.1    15    7.4   133     16.1   924.2    0.00       0    97.0
 180    0:50   94.0    15   10.8   135     15.4   924.1    0.00       0    96.9
 180    1:00   93.8    16    8.6   134     12.1   924.0    0.00       0    96.8
 180    1:10   93.9    16    8.9   136     12.3   923.9    0.00       0    96.7
 180    1:20   93.9    16    5.6   134     12.9   924.0    0.00       0    96.5
 180    1:30   93.6    16    4.5   137      8.0   924.0    0.00       0    96.4
 180    1:40   93.6    16    4.3   142      6.9   924.1    0.00       0    96.3
 180    1:50   93.8    16    6.2   138      9.0   924.1    0.00       0    96.2
 180    2:00   94.2    16    5.3   159      7.9   924.2    0.00       0    96.1
 180    2:10   94.2    16    6.2   168      9.5   924.3    0.00       0    96.0
 180    2:20   93.8    16    6.9   177     10.5   924.4    0.00       0    95.9
 180    2:30   93.1    17    5.6   178      8.8   924.5    0.00       0    95.8
 180    2:40   92.2    17    4.5   167      6.4   924.3    0.00       0    95.7
 180    2:50   91.7    18    4.4   147      6.8   924.3    0.00       0    95.6
 180    3:00   91.7    18    3.3   141      6.9   924.2    0.00       0    95.5
 180    3:10   91.7    17    3.7   149      5.4   924.2    0.00       0    95.5
 180    3:20   91.6    17    2.0   147      3.4   924.2    0.00       0    95.3
 180    3:30   91.7    17    3.4   163      5.6   924.3    0.00       0    95.3
 180    3:40   92.4    17    4.8   152      7.5   924.3    0.00       0    95.2
 180    3:50   92.4    17    4.4   126      7.7   924.4    0.00       0    95.1
 180    4:00   91.3    18    1.1   100      4.2   924.6    0.00       0    95.0
 180    4:10   89.3    20    0.6   234      2.9   924.6    0.00       0    94.9
 180    4:20   88.4    20    1.5   144      4.9   924.7    0.00       0    94.7
 180    4:30   91.1    18    3.0   193      5.5   924.7    0.00       0    94.6
 180    4:40   87.2    22    1.1   312      3.3   924.6    0.00       0    94.5
 180    4:50   85.8    23    1.3   308      4.2   924.6    0.00       0    94.4
 180    5:00   85.7    23    2.4   317      4.1   924.7    0.00       0    94.4
 180    5:10   85.1    23    0.4   251      3.0   924.8    0.00       0    94.2
 180    5:20   84.9    24    0.1   296      0.1   924.8    0.00       0    94.1
 180    5:30   85.3    23    0.0   357      0.1   924.7    0.00       0    94.0
 180    5:40   85.9    22    0.0   100      0.1   924.9    0.00       0    93.9
 180    5:50   86.6    21    0.1   143      0.1   925.0    0.00       0    93.8
 180    6:00   88.2    20    0.1   146      0.1   925.1    0.00       0    93.7
 180    6:10   89.0    20    0.1   138      0.1   925.1    0.00       0    93.6
 180    6:20   89.7    20    0.1   191      0.1   925.3    0.00       0    93.5
 180    6:30   89.6    22    0.1   271      0.1   925.4    0.00       0    93.5
 180    6:40   89.2    22    0.1   254      0.1   925.6    0.00       0    93.5
 180    6:50   90.0    21    0.1   203      2.4   925.6    0.00       0    93.4
 180    7:00   92.1    18    1.1   179      4.6   925.7    0.00       0    93.5
 180    7:10   93.3    18    0.6   200      4.6   926.0    0.00       0    93.5
 180    7:20   94.4    19    1.0   258      3.9   926.2    0.00       0    93.6
 180    7:30   97.5    17    0.1   259      0.8   926.4    0.00      59    93.8
 180    7:40   98.7    16    0.2   201     10.4   926.6    0.00      42    94.0
 180    7:50   99.4    13    3.6   139     17.0   927.0    0.00     321    94.3
 180    8:00   98.7    13    9.9   151     18.1   927.1    0.00     458    94.6
 180    8:10   98.8    13   13.4   166     20.7   927.1    0.00     615    95.1
 180    8:20   98.5    13   12.9   164     20.9   927.1    0.00     361    95.5
 180    8:30   98.0    14   10.9   176     17.8   927.1    0.00     196    95.8
 180    8:40   98.1    14    9.0   175     16.4   926.9    0.00     329    96.2
 180    8:50   98.5    14    9.6   180     15.6   926.9    0.00     185    96.4
 180    9:00   97.8    14    6.9   190     14.6   926.9    0.00     187    96.5
 180    9:10   97.8    14    5.6   203     11.4   926.9    0.00     284    96.7
 180    9:20   97.4    14    7.1   196     12.7   926.9    0.00     304    96.8
 180    9:30   97.9    14    5.5   216     11.8   926.9    0.00     399    96.8
 180    9:40   98.3    14    5.4   207     13.2   927.0    0.00     421    96.9
 180    9:50   99.1    14    8.0   188     14.9   927.0    0.00     217    96.9
 180   10:00   99.0    14    6.7   196     12.2   927.1    0.00     170    97.0
 180   10:10   98.9    13    6.9   194     14.2   927.1    0.00     416    97.1
 180   10:20  100.5    13    4.5   218     10.4   927.1    0.00     466    97.2
 180   10:30  100.4    13    7.1   199     15.3   927.1    0.00     548    97.4
 180   10:40   99.8    13    9.8   178     17.7   927.2    0.00     384    97.5
 180   10:50   98.7    13    8.2   187     17.8   927.1    0.00      93    97.7
 180   11:00   97.9    14    0.8   207      8.4   927.0    0.00      57    97.8
 180   11:10   97.8    14    2.2   124     14.5   927.0    0.00     134    97.9
 180   11:20   97.3    14    6.6    96     12.4   926.8    0.00     147    97.9
 180   11:30   98.2    14    3.6    82      8.1   926.7    0.00     282    97.8
 180   11:40   98.8    14    5.7    51     10.7   926.6    0.00     312    97.7
 180   11:50   99.2    13    0.3    53     11.1   926.6    0.00     258    97.7
 180   12:00  100.1    13    0.0    67      0.1   926.6    0.00     218    97.8
 180   12:10  101.7    13    0.1   324      0.1   926.6    0.00    1029    97.8
 180   12:20  102.1    12    0.1    40      0.1   926.7    0.00     384    98.0
 180   12:30  101.0    13    0.1    18      0.1   926.7    0.00     458    98.2
 180   12:40  101.2    13    0.1    22      0.1   926.6    0.00     389    98.5
 180   12:50  100.9    13    0.1    43      0.1   926.5    0.00     398    98.8
 180   13:00  100.9    13    0.1   340      0.1   926.3    0.00     616    99.0
 180   13:10  102.1    12    0.1   336      0.1   926.0    0.00     447    99.2
 180   13:20  102.8    12    0.1   353      0.1   925.8    0.00     837    99.3
 180   13:30  104.0    12    0.1    12      0.1   925.7    0.00     437    99.4
 180   13:40  104.9    12    0.1   310      0.1   925.6    0.00     540    99.6
 180   13:50  104.5    12    0.1   314      0.1   925.5    0.00     378    99.9
 180   14:00  104.1    12    4.4   293     10.6   925.4    0.00     710    100.3
 180   14:10  105.3    11    4.0   275      9.1   925.3    0.00     885    100.5
 180   14:20  104.6    12    4.1   310     10.2   925.1    0.00     864    100.7
 180   14:30  105.2    12    3.7   298      7.2   925.0    0.00     844    100.9
 180   14:40  105.9    11    2.8   270      8.0   924.9    0.00     821    100.9
 180   14:50  105.9    11    1.5   288      9.9   924.7    0.00     304    100.9

Return to Pahrump, Nevada graphs page.


Western Regional Climate Center,wrcc@dri.edu